PIA455 OPKC-OPSD

Flight info

Callsign PIA455
Flight time 2h 1m
Altitude 37000
Route BADUL B466 NH Z301 RN J186 KAPMI J154 BUNGI J186 DELDA J122 BIREB
Aircraft A320/M-SDE3FGHIRWY/LB1

Departure

Time 2026-04-25 15:50
Airport Jinnah International Airport (OPKC)

Arrival

Time 2026-04-25 17:51
Airport Skardu International Airport (OPSD)
Time Latitude Longitude Altitude Speed Heading
2026-04-25 15:02 24.90236 67.16853 101 ft 0 kts 88°
2026-04-25 15:36 24.90235 67.16831 74 ft 2 kts 88°
2026-04-25 15:36 24.90234 67.16815 112 ft 2 kts 88°
2026-04-25 15:36 24.90234 67.16799 101 ft 2 kts 86°
2026-04-25 15:37 24.90231 67.16782 101 ft 2 kts 66°
2026-04-25 15:37 24.90224 67.16768 101 ft 2 kts 40°
2026-04-25 15:37 24.90211 67.16763 101 ft 2 kts 346°
2026-04-25 15:37 24.90217 67.16761 100 ft 2 kts 345°
2026-04-25 15:38 24.90230 67.16757 100 ft 2 kts 345°
2026-04-25 15:38 24.90244 67.16753 101 ft 2 kts 344°
2026-04-25 15:38 24.90256 67.16749 101 ft 2 kts 344°
2026-04-25 15:38 24.90265 67.16746 101 ft 0 kts 344°
2026-04-25 15:44 24.90270 67.16745 101 ft 5 kts 344°
2026-04-25 15:44 24.90298 67.16737 101 ft 2 kts 344°
2026-04-25 15:44 24.90312 67.16732 101 ft 3 kts 344°
2026-04-25 15:45 24.90346 67.16722 101 ft 7 kts 344°
2026-04-25 15:45 24.90412 67.16702 101 ft 12 kts 344°
2026-04-25 15:45 24.90477 67.16711 102 ft 9 kts 43°
2026-04-25 15:45 24.90493 67.16760 102 ft 12 kts 75°
2026-04-25 15:46 24.90529 67.16904 101 ft 14 kts 75°
2026-04-25 15:46 24.90553 67.17002 102 ft 12 kts 75°
2026-04-25 15:46 24.90575 67.17086 102 ft 11 kts 73°
2026-04-25 15:46 24.90594 67.17159 102 ft 9 kts 73°
2026-04-25 15:47 24.90612 67.17226 102 ft 11 kts 75°
2026-04-25 15:47 24.90635 67.17321 102 ft 15 kts 74°
2026-04-25 15:47 24.90678 67.17426 102 ft 14 kts 49°
2026-04-25 15:47 24.90769 67.17476 104 ft 16 kts 28°
2026-04-25 15:48 24.90830 67.17493 106 ft 0 kts 352°
2026-04-25 15:48 24.90844 67.17490 106 ft 5 kts 348°
2026-04-25 15:48 24.90872 67.17469 107 ft 3 kts 281°
2026-04-25 15:48 24.90870 67.17458 107 ft 0 kts 254°
2026-04-25 15:49 24.90862 67.17427 107 ft 23 kts 255°
2026-04-25 15:49 24.90751 67.16985 107 ft 93 kts 253°
2026-04-25 15:49 24.90522 67.16098 104 ft 145 kts 255°
2026-04-25 15:49 24.90245 67.14929 359 ft 167 kts 255°
2026-04-25 15:50 24.89950 67.13654 864 ft 177 kts 260°
2026-04-25 15:50 24.90132 67.12338 1406 ft 179 kts 300°
2026-04-25 15:50 24.91112 67.11439 1770 ft 197 kts 338°
2026-04-25 15:50 24.92538 67.11436 2080 ft 222 kts 19°
2026-04-25 15:51 24.93802 67.12503 2472 ft 239 kts 45°
2026-04-25 15:51 24.94558 67.13459 2700 ft 251 kts 49°
2026-04-25 15:51 24.96014 67.15532 3371 ft 262 kts 51°
2026-04-25 15:51 24.97121 67.17132 3990 ft 266 kts 46°
2026-04-25 15:52 24.98503 67.18554 4385 ft 279 kts 39°
2026-04-25 15:52 24.99979 67.19970 5008 ft 283 kts 39°
2026-04-25 15:52 25.01475 67.21401 5695 ft 286 kts 39°
2026-04-25 15:52 25.02980 67.22846 6378 ft 288 kts 40°
2026-04-25 15:53 25.04498 67.24304 7039 ft 291 kts 39°
2026-04-25 15:53 25.06028 67.25773 7712 ft 293 kts 40°
2026-04-25 15:53 25.07572 67.27254 8393 ft 295 kts 40°
2026-04-25 15:53 25.09125 67.28748 9072 ft 298 kts 40°
2026-04-25 15:54 25.10693 67.30257 9764 ft 300 kts 40°
2026-04-25 15:54 25.12286 67.31792 10247 ft 310 kts 40°
2026-04-25 15:54 25.13950 67.33400 10529 ft 326 kts 40°
2026-04-25 15:54 25.15702 67.35090 10783 ft 342 kts 40°
2026-04-25 15:55 25.17538 67.36854 11004 ft 359 kts 40°
2026-04-25 15:55 25.19460 67.38701 11231 ft 373 kts 40°
2026-04-25 15:55 25.21427 67.40599 11706 ft 378 kts 40°
2026-04-25 15:55 25.23411 67.42518 12309 ft 379 kts 40°
2026-04-25 15:56 25.25397 67.44443 12913 ft 381 kts 40°
2026-04-25 15:56 25.27394 67.46378 13511 ft 383 kts 40°
2026-04-25 15:56 25.29402 67.48323 14048 ft 385 kts 40°
2026-04-25 15:56 25.31430 67.50285 14497 ft 390 kts 40°
2026-04-25 15:57 25.33473 67.52264 14988 ft 392 kts 40°
2026-04-25 15:57 25.35531 67.54258 15477 ft 395 kts 40°
2026-04-25 15:57 25.37606 67.56268 15958 ft 398 kts 40°
2026-04-25 15:57 25.39696 67.58296 16437 ft 401 kts 40°
2026-04-25 15:58 25.41799 67.60336 16907 ft 404 kts 40°
2026-04-25 15:58 25.43926 67.62399 17367 ft 408 kts 40°
2026-04-25 15:58 25.46065 67.64475 17843 ft 411 kts 40°
2026-04-25 15:58 25.48223 67.66570 18274 ft 414 kts 40°
2026-04-25 15:59 25.50393 67.68677 18656 ft 417 kts 40°
2026-04-25 15:59 25.52582 67.70801 19040 ft 419 kts 40°
2026-04-25 15:59 25.54784 67.72936 19429 ft 422 kts 40°
2026-04-25 15:59 25.56998 67.75087 19808 ft 424 kts 40°
2026-04-25 16:00 25.58465 67.76514 20050 ft 426 kts 40°
2026-04-25 16:00 25.63704 67.81622 20883 ft 432 kts 40°
2026-04-25 16:00 25.65967 67.83834 21221 ft 435 kts 40°
2026-04-25 16:01 25.68240 67.86054 21553 ft 437 kts 40°
2026-04-25 16:01 25.70500 67.88264 21878 ft 440 kts 40°
2026-04-25 16:01 25.72799 67.90511 22192 ft 442 kts 40°
2026-04-25 16:01 25.75118 67.92776 22502 ft 445 kts 40°
2026-04-25 16:02 25.77444 67.95049 22798 ft 447 kts 40°
2026-04-25 16:02 25.79787 67.97338 23097 ft 449 kts 40°
2026-04-25 16:02 25.82134 67.99638 23378 ft 452 kts 40°
2026-04-25 16:02 25.84492 68.01953 23617 ft 454 kts 40°
2026-04-25 16:03 25.86859 68.04279 23856 ft 455 kts 40°
2026-04-25 16:03 25.89236 68.06612 24103 ft 456 kts 40°
2026-04-25 16:03 25.91621 68.08949 24345 ft 458 kts 40°
2026-04-25 16:03 25.94013 68.11289 24594 ft 459 kts 40°
2026-04-25 16:04 25.96413 68.13643 24849 ft 461 kts 40°
2026-04-25 16:04 25.98815 68.16001 25090 ft 462 kts 40°
2026-04-25 16:04 26.01229 68.18372 25333 ft 463 kts 40°
2026-04-25 16:04 26.03645 68.20746 25563 ft 465 kts 40°
2026-04-25 16:05 26.06066 68.23130 25797 ft 466 kts 40°
2026-04-25 16:05 26.08497 68.25527 26024 ft 467 kts 40°
2026-04-25 16:05 26.13378 68.30344 26454 ft 470 kts 40°
2026-04-25 16:06 26.15827 68.32761 26663 ft 472 kts 40°
2026-04-25 16:06 26.18283 68.35182 26864 ft 473 kts 40°
2026-04-25 16:06 26.20774 68.37581 27060 ft 473 kts 36°
2026-04-25 16:06 26.23504 68.39628 27264 ft 473 kts 28°
2026-04-25 16:07 26.26400 68.41351 27497 ft 472 kts 26°
2026-04-25 16:07 26.27341 68.41907 27584 ft 472 kts 26°
2026-04-25 16:07 26.32193 68.44776 28066 ft 470 kts 26°
2026-04-25 16:07 26.35082 68.46490 28357 ft 469 kts 26°
2026-04-25 16:08 26.37958 68.48200 28644 ft 469 kts 26°
2026-04-25 16:08 26.40834 68.49912 28938 ft 468 kts 26°
2026-04-25 16:08 26.43699 68.51619 29221 ft 467 kts 26°
2026-04-25 16:08 26.46561 68.53326 29509 ft 466 kts 26°
2026-04-25 16:09 26.49421 68.55034 29787 ft 466 kts 26°
2026-04-25 16:09 26.52116 68.56642 30025 ft 465 kts 26°
2026-04-25 16:09 26.54930 68.58320 30264 ft 465 kts 26°
2026-04-25 16:09 26.57776 68.60018 30507 ft 464 kts 26°
2026-04-25 16:10 26.60623 68.61716 30750 ft 463 kts 26°
2026-04-25 16:10 26.63461 68.63410 30987 ft 462 kts 26°
2026-04-25 16:10 26.66300 68.65105 31233 ft 462 kts 26°
2026-04-25 16:10 26.69132 68.66793 31477 ft 461 kts 26°
2026-04-25 16:11 26.71955 68.68476 31727 ft 460 kts 26°
2026-04-25 16:11 26.74776 68.70160 31983 ft 459 kts 26°
2026-04-25 16:11 26.77586 68.71842 32233 ft 458 kts 26°
2026-04-25 16:11 26.80392 68.73521 32478 ft 457 kts 26°
2026-04-25 16:12 26.83194 68.75195 32726 ft 456 kts 27°
2026-04-25 16:12 26.85995 68.76871 32972 ft 455 kts 27°
2026-04-25 16:12 26.88784 68.78539 33217 ft 454 kts 27°
2026-04-25 16:13 26.94348 68.81869 33706 ft 452 kts 27°
2026-04-25 16:13 26.97124 68.83533 33935 ft 452 kts 27°
2026-04-25 16:13 26.99889 68.85195 34137 ft 451 kts 27°
2026-04-25 16:13 27.02657 68.86860 34335 ft 451 kts 26°
2026-04-25 16:14 27.05420 68.88522 34518 ft 450 kts 26°
2026-04-25 16:14 27.08178 68.90181 34698 ft 450 kts 26°
2026-04-25 16:14 27.10942 68.91841 34779 ft 452 kts 26°
2026-04-25 16:15 27.16518 68.95190 34790 ft 455 kts 26°
2026-04-25 16:15 27.22108 68.98554 34789 ft 456 kts 26°
2026-04-25 16:16 27.27697 69.01933 34789 ft 456 kts 26°
2026-04-25 16:16 27.33290 69.05319 34788 ft 457 kts 26°
2026-04-25 16:17 27.38893 69.08700 34792 ft 457 kts 26°
2026-04-25 16:17 27.44453 69.12057 34787 ft 457 kts 26°
2026-04-25 16:18 27.50056 69.15449 34781 ft 457 kts 26°
2026-04-25 16:18 27.54747 69.18292 34788 ft 457 kts 26°
2026-04-25 16:19 27.61260 69.22243 34780 ft 457 kts 26°
2026-04-25 16:19 27.65962 69.25089 34782 ft 458 kts 26°
2026-04-25 16:20 27.74375 69.30197 34785 ft 458 kts 26°
2026-04-25 16:21 27.82801 69.35327 34793 ft 459 kts 26°
2026-04-25 16:21 27.88417 69.38748 34804 ft 458 kts 26°
2026-04-25 16:22 27.94032 69.42174 34806 ft 458 kts 26°
2026-04-25 16:22 27.99609 69.45572 34811 ft 458 kts 25°
2026-04-25 16:23 28.05257 69.49017 34809 ft 458 kts 26°
2026-04-25 16:23 28.10866 69.52463 34815 ft 458 kts 26°
2026-04-25 16:24 28.16432 69.55888 34809 ft 458 kts 25°
2026-04-25 16:24 28.22036 69.59326 34810 ft 458 kts 25°
2026-04-25 16:25 28.27635 69.62759 34809 ft 457 kts 25°
2026-04-25 16:25 28.33225 69.66197 34810 ft 457 kts 25°
2026-04-25 16:26 28.38808 69.69637 34807 ft 456 kts 25°
2026-04-25 16:26 28.44386 69.73085 34809 ft 456 kts 25°
2026-04-25 16:27 28.49961 69.76531 34808 ft 456 kts 25°
2026-04-25 16:27 28.55541 69.79971 34815 ft 456 kts 25°
2026-04-25 16:28 28.61140 69.83351 34806 ft 456 kts 24°
2026-04-25 16:28 28.66754 69.86701 34815 ft 456 kts 24°
2026-04-25 16:29 28.72366 69.90060 34815 ft 456 kts 24°
2026-04-25 16:29 28.77966 69.93439 34818 ft 456 kts 24°
2026-04-25 16:30 28.83566 69.96829 34815 ft 456 kts 24°
2026-04-25 16:30 28.89169 70.00227 34822 ft 456 kts 24°
2026-04-25 16:31 28.94780 70.03622 34827 ft 457 kts 24°
2026-04-25 16:31 29.00392 70.07013 34827 ft 457 kts 24°
2026-04-25 16:32 29.06017 70.10429 34832 ft 458 kts 24°
2026-04-25 16:32 29.11639 70.13854 34832 ft 458 kts 24°
2026-04-25 16:33 29.17229 70.17256 34829 ft 458 kts 24°
2026-04-25 16:33 29.22856 70.20680 34828 ft 459 kts 24°
2026-04-25 16:34 29.28490 70.24127 34824 ft 459 kts 24°
2026-04-25 16:34 29.34128 70.27574 34820 ft 459 kts 24°
2026-04-25 16:35 29.39765 70.31025 34823 ft 460 kts 24°
2026-04-25 16:35 29.45408 70.34480 34820 ft 460 kts 23°
2026-04-25 16:36 29.51031 70.37935 34834 ft 457 kts 23°
2026-04-25 16:36 29.56639 70.41378 34818 ft 457 kts 23°
2026-04-25 16:37 29.62252 70.44822 34807 ft 458 kts 23°
2026-04-25 16:37 29.67865 70.48279 34813 ft 458 kts 23°
2026-04-25 16:38 29.73486 70.51749 34809 ft 459 kts 23°
2026-04-25 16:38 29.79113 70.55224 34813 ft 459 kts 23°
2026-04-25 16:39 29.84738 70.58704 34812 ft 459 kts 23°
2026-04-25 16:39 29.90368 70.62189 34821 ft 459 kts 22°
2026-04-25 16:40 29.96007 70.65677 34828 ft 460 kts 22°
2026-04-25 16:40 30.01641 70.69168 34828 ft 460 kts 22°
2026-04-25 16:41 30.07238 70.72648 34828 ft 460 kts 22°
2026-04-25 16:41 30.15691 70.77911 34833 ft 460 kts 22°
2026-04-25 16:42 30.21324 70.81431 34825 ft 460 kts 22°
2026-04-25 16:42 30.27003 70.84818 34814 ft 459 kts 20°
2026-04-25 16:43 30.32760 70.87991 34814 ft 458 kts 19°
2026-04-25 16:43 30.38524 70.91154 34813 ft 459 kts 20°
2026-04-25 16:44 30.44267 70.94390 34812 ft 460 kts 20°
2026-04-25 16:44 30.50017 70.97664 34815 ft 461 kts 20°
2026-04-25 16:45 30.55775 71.00933 34824 ft 461 kts 20°
2026-04-25 16:45 30.61536 71.04204 34818 ft 461 kts 20°
2026-04-25 16:46 30.67299 71.07475 34818 ft 462 kts 20°
2026-04-25 16:46 30.71125 71.09650 34824 ft 462 kts 20°
2026-04-25 16:47 30.78851 71.14056 34818 ft 463 kts 20°
2026-04-25 16:47 30.84633 71.17356 34823 ft 463 kts 20°
2026-04-25 16:48 30.90416 71.20653 34820 ft 463 kts 20°
2026-04-25 16:48 30.96161 71.23938 34813 ft 463 kts 20°
2026-04-25 16:49 31.01943 71.27256 34815 ft 463 kts 20°
2026-04-25 16:49 31.07764 71.30602 34818 ft 463 kts 20°
2026-04-25 16:50 31.12571 71.33356 34822 ft 463 kts 20°
2026-04-25 16:50 31.19298 71.37217 34824 ft 464 kts 20°
2026-04-25 16:51 31.25086 71.40547 34823 ft 464 kts 20°
2026-04-25 16:51 31.28955 71.42777 34820 ft 464 kts 20°
2026-04-25 16:52 31.36664 71.47228 34826 ft 464 kts 20°
2026-04-25 16:52 31.42453 71.50578 34824 ft 464 kts 20°
2026-04-25 16:53 31.51136 71.55599 34827 ft 464 kts 19°
2026-04-25 16:54 31.56912 71.58955 34832 ft 464 kts 19°
2026-04-25 16:54 31.62689 71.62313 34830 ft 463 kts 19°
2026-04-25 16:55 31.68463 71.65681 34829 ft 463 kts 19°
2026-04-25 16:55 31.74228 71.69049 34837 ft 463 kts 19°
2026-04-25 16:56 31.79997 71.72416 34838 ft 463 kts 19°
2026-04-25 16:56 31.85762 71.75783 34838 ft 463 kts 19°
2026-04-25 16:57 31.91521 71.79150 34845 ft 462 kts 19°
2026-04-25 16:57 31.97283 71.82522 34847 ft 462 kts 19°
2026-04-25 16:58 32.03005 71.85873 34846 ft 462 kts 19°
2026-04-25 16:58 32.08762 71.89256 34852 ft 462 kts 19°
2026-04-25 16:59 32.14519 71.92647 34850 ft 462 kts 19°
2026-04-25 16:59 32.20276 71.96047 34856 ft 463 kts 19°
2026-04-25 17:00 32.26036 71.99446 34852 ft 463 kts 19°
2026-04-25 17:00 32.31800 72.02848 34858 ft 464 kts 19°
2026-04-25 17:01 32.37567 72.06259 34854 ft 464 kts 19°
2026-04-25 17:01 32.43340 72.09688 34872 ft 463 kts 19°
2026-04-25 17:02 32.48939 72.13608 34879 ft 475 kts 30°
2026-04-25 17:02 32.54263 72.18255 34885 ft 476 kts 30°
2026-04-25 17:03 32.59597 72.22929 34888 ft 477 kts 30°
2026-04-25 17:03 32.64937 72.27610 34902 ft 478 kts 30°
2026-04-25 17:04 32.70294 72.32298 34906 ft 478 kts 30°
2026-04-25 17:04 32.75648 72.36994 34908 ft 479 kts 30°
2026-04-25 17:05 32.81006 72.41702 34907 ft 479 kts 30°
2026-04-25 17:05 32.89014 72.48754 34909 ft 480 kts 31°
2026-04-25 17:06 32.93506 72.52720 34911 ft 480 kts 31°
2026-04-25 17:06 32.98863 72.57450 34909 ft 480 kts 31°
2026-04-25 17:07 33.04230 72.62198 34911 ft 480 kts 31°
2026-04-25 17:07 33.09586 72.66951 34917 ft 480 kts 31°
2026-04-25 17:08 33.14942 72.71713 34917 ft 480 kts 31°
2026-04-25 17:08 33.20291 72.76476 34915 ft 480 kts 31°
2026-04-25 17:09 33.25648 72.81253 34916 ft 480 kts 31°
2026-04-25 17:09 33.30990 72.86022 34922 ft 479 kts 31°
2026-04-25 17:10 33.36332 72.90791 34922 ft 479 kts 31°
2026-04-25 17:10 33.41672 72.95569 34928 ft 479 kts 31°
2026-04-25 17:11 33.46998 73.00350 34927 ft 479 kts 31°
2026-04-25 17:11 33.52286 73.05105 34934 ft 478 kts 32°
2026-04-25 17:12 33.57605 73.09876 34939 ft 476 kts 29°
2026-04-25 17:12 33.63418 73.13376 34941 ft 462 kts 12°
2026-04-25 17:13 33.68609 73.14981 34949 ft 460 kts
2026-04-25 17:13 33.75832 73.17128 34975 ft 460 kts
2026-04-25 17:14 33.82042 73.19004 34983 ft 460 kts
2026-04-25 17:14 33.88242 73.20877 34986 ft 460 kts
2026-04-25 17:15 33.94462 73.22755 34996 ft 460 kts
2026-04-25 17:15 34.00666 73.24624 35002 ft 460 kts
2026-04-25 17:16 34.06887 73.26503 35018 ft 461 kts
2026-04-25 17:16 34.13110 73.28387 35031 ft 461 kts
2026-04-25 17:17 34.19329 73.30272 35042 ft 461 kts
2026-04-25 17:17 34.25557 73.32151 35045 ft 462 kts
2026-04-25 17:18 34.31790 73.34041 35062 ft 462 kts
2026-04-25 17:18 34.38025 73.35939 35074 ft 462 kts
2026-04-25 17:19 34.44274 73.37840 35092 ft 463 kts
2026-04-25 17:19 34.50509 73.39746 35117 ft 462 kts
2026-04-25 17:20 34.56756 73.41652 35136 ft 463 kts
2026-04-25 17:20 34.63002 73.43566 35165 ft 463 kts
2026-04-25 17:21 34.69260 73.45490 35183 ft 465 kts
2026-04-25 17:21 34.75489 73.47463 35213 ft 468 kts 14°
2026-04-25 17:22 34.78510 73.48976 35002 ft 471 kts 23°
2026-04-25 17:22 34.80432 73.50328 34777 ft 474 kts 29°
2026-04-25 17:22 34.83977 73.53586 34330 ft 478 kts 33°
2026-04-25 17:22 34.86569 73.56043 33967 ft 479 kts 34°
2026-04-25 17:23 34.89202 73.58526 33586 ft 479 kts 34°
2026-04-25 17:23 34.91877 73.61039 33196 ft 480 kts 34°
2026-04-25 17:23 34.94529 73.63523 32822 ft 481 kts 34°
2026-04-25 17:23 34.97187 73.66014 32454 ft 483 kts 34°
2026-04-25 17:24 34.99851 73.68519 32074 ft 484 kts 34°
2026-04-25 17:24 35.02520 73.71035 31713 ft 485 kts 34°
2026-04-25 17:24 35.05185 73.73555 31354 ft 485 kts 34°
2026-04-25 17:24 35.07849 73.76084 30993 ft 486 kts 35°
2026-04-25 17:25 35.10485 73.78589 30640 ft 487 kts 35°
2026-04-25 17:25 35.13192 73.81162 30264 ft 488 kts 35°
2026-04-25 17:25 35.15873 73.83710 29861 ft 488 kts 35°
2026-04-25 17:25 35.18488 73.86199 29488 ft 477 kts 34°
2026-04-25 17:26 35.21138 73.88725 29068 ft 477 kts 34°
2026-04-25 17:26 35.23755 73.91210 28667 ft 477 kts 34°
2026-04-25 17:26 35.26345 73.93667 28271 ft 478 kts 34°
2026-04-25 17:26 35.28973 73.96159 27877 ft 479 kts 34°
2026-04-25 17:27 35.31607 73.98661 27490 ft 480 kts 34°
2026-04-25 17:27 35.34249 74.01176 27108 ft 481 kts 35°
2026-04-25 17:27 35.36888 74.03695 26726 ft 482 kts 35°
2026-04-25 17:27 35.37780 74.04547 26605 ft 482 kts 35°
2026-04-25 17:28 35.41762 74.09366 25997 ft 489 kts 50°
2026-04-25 17:28 35.43602 74.12878 25740 ft 493 kts 60°
2026-04-25 17:28 35.45163 74.16630 25731 ft 494 kts 61°
2026-04-25 17:28 35.46734 74.20370 25739 ft 494 kts 61°
2026-04-25 17:29 35.48321 74.24118 25747 ft 494 kts 61°
2026-04-25 17:29 35.49902 74.27851 25745 ft 494 kts 61°
2026-04-25 17:29 35.51482 74.31601 25751 ft 495 kts 61°
2026-04-25 17:29 35.53056 74.35348 25698 ft 492 kts 61°
2026-04-25 17:30 35.54594 74.39028 25557 ft 470 kts 61°
2026-04-25 17:30 35.56031 74.42482 25399 ft 439 kts 61°
2026-04-25 17:30 35.57373 74.45710 25277 ft 411 kts 61°
2026-04-25 17:30 35.58636 74.48740 25167 ft 386 kts 61°
2026-04-25 17:31 35.59820 74.51576 25013 ft 363 kts 60°
2026-04-25 17:31 35.60954 74.54287 24786 ft 351 kts 61°
2026-04-25 17:31 35.62047 74.56906 24751 ft 336 kts 61°
2026-04-25 17:31 35.63097 74.59427 24773 ft 330 kts 61°
2026-04-25 17:32 35.64166 74.61928 24769 ft 330 kts 59°
2026-04-25 17:32 35.65282 74.64403 24777 ft 331 kts 58°
2026-04-25 17:32 35.66420 74.66863 24782 ft 331 kts 58°
2026-04-25 17:32 35.67558 74.69318 24788 ft 330 kts 58°
2026-04-25 17:33 35.68689 74.71775 24792 ft 330 kts 59°
2026-04-25 17:33 35.69750 74.74277 24792 ft 330 kts 66°
2026-04-25 17:33 35.70437 74.76976 24804 ft 332 kts 78°
2026-04-25 17:33 35.70688 74.79800 24807 ft 333 kts 90°
2026-04-25 17:34 35.70503 74.82638 24752 ft 334 kts 101°
2026-04-25 17:34 35.69919 74.85384 24481 ft 331 kts 108°
2026-04-25 17:34 35.69256 74.88087 24121 ft 328 kts 107°
2026-04-25 17:34 35.68602 74.90769 23809 ft 325 kts 107°
2026-04-25 17:35 35.67954 74.93438 23549 ft 325 kts 107°
2026-04-25 17:35 35.67313 74.96094 23281 ft 322 kts 107°
2026-04-25 17:35 35.66678 74.98714 23019 ft 319 kts 107°
2026-04-25 17:35 35.66041 75.01324 22758 ft 318 kts 107°
2026-04-25 17:36 35.65407 75.03917 22506 ft 315 kts 107°
2026-04-25 17:36 35.64777 75.06491 22239 ft 314 kts 107°
2026-04-25 17:36 35.64149 75.09059 21986 ft 312 kts 107°
2026-04-25 17:36 35.63528 75.11604 21833 ft 310 kts 107°
2026-04-25 17:37 35.62906 75.14152 21846 ft 310 kts 107°
2026-04-25 17:37 35.62285 75.16698 21850 ft 311 kts 107°
2026-04-25 17:37 35.61691 75.19121 21845 ft 311 kts 107°
2026-04-25 17:37 35.61063 75.21666 21847 ft 311 kts 107°
2026-04-25 17:38 35.60437 75.24204 21846 ft 311 kts 107°
2026-04-25 17:38 35.60234 75.25030 21847 ft 311 kts 107°
2026-04-25 17:38 35.59210 75.29303 21268 ft 311 kts 107°
2026-04-25 17:38 35.58615 75.31852 20898 ft 310 kts 106°
2026-04-25 17:39 35.58023 75.34390 20535 ft 309 kts 108°
2026-04-25 17:39 35.57158 75.36794 20160 ft 309 kts 123°
2026-04-25 17:39 35.55855 75.38870 19808 ft 305 kts 136°
2026-04-25 17:39 35.54217 75.40492 19455 ft 301 kts 150°
2026-04-25 17:40 35.52806 75.41385 19180 ft 298 kts 160°
2026-04-25 17:40 35.50858 75.42232 18834 ft 296 kts 162°
2026-04-25 17:40 35.48925 75.43068 18468 ft 294 kts 161°
2026-04-25 17:40 35.47014 75.43943 18091 ft 292 kts 156°
2026-04-25 17:41 35.45255 75.45159 17749 ft 288 kts 147°
2026-04-25 17:41 35.43632 75.46477 17511 ft 281 kts 148°
2026-04-25 17:41 35.41925 75.47704 17006 ft 287 kts 156°
2026-04-25 17:41 35.40090 75.48648 16532 ft 285 kts 158°
2026-04-25 17:42 35.38242 75.49587 16003 ft 282 kts 158°
2026-04-25 17:42 35.36449 75.50503 15464 ft 282 kts 158°
2026-04-25 17:42 35.34656 75.51421 15193 ft 273 kts 158°
2026-04-25 17:42 35.32967 75.52289 15025 ft 254 kts 158°
2026-04-25 17:43 35.31389 75.53171 14660 ft 246 kts 150°
2026-04-25 17:43 35.30160 75.54541 14270 ft 240 kts 123°
2026-04-25 17:43 35.29334 75.56342 13566 ft 246 kts 113°
2026-04-25 17:43 35.28982 75.58376 12994 ft 246 kts 94°
2026-04-25 17:44 35.29047 75.60466 12339 ft 248 kts 81°
2026-04-25 17:44 35.29493 75.62517 11662 ft 250 kts 64°
2026-04-25 17:44 35.30224 75.64404 11290 ft 241 kts 59°
2026-04-25 17:44 35.31357 75.65838 10859 ft 234 kts 27°
2026-04-25 17:45 35.32897 75.66277 10330 ft 230 kts 351°
2026-04-25 17:45 35.33429 75.66134 10045 ft 234 kts 336°
2026-04-25 17:45 35.34741 75.63595 9478 ft 209 kts 273°
2026-04-25 17:45 35.34723 75.61879 9255 ft 197 kts 270°
2026-04-25 17:46 35.34774 75.60194 8951 ft 200 kts 263°
2026-04-25 17:46 35.34396 75.58548 8936 ft 195 kts 255°
2026-04-25 17:46 35.34412 75.57043 8900 ft 164 kts 296°
2026-04-25 17:46 35.35059 75.55924 8977 ft 169 kts 315°
2026-04-25 17:47 35.35943 75.54936 8871 ft 172 kts 320°
2026-04-25 17:47 35.36847 75.54018 8607 ft 166 kts 321°
2026-04-25 17:47 35.37755 75.53173 8322 ft 163 kts 326°
2026-04-25 17:47 35.38693 75.52381 8356 ft 165 kts 326°
2026-04-25 17:48 35.40640 75.50919 8488 ft 164 kts 336°
2026-04-25 17:48 35.41237 75.49829 8241 ft 161 kts 256°
2026-04-25 17:48 35.40423 75.49042 7804 ft 165 kts 169°
2026-04-25 17:49 35.39424 75.49681 8019 ft 174 kts 143°
2026-04-25 17:49 35.38952 75.50148 8007 ft 196 kts 141°
2026-04-25 17:49 35.38027 75.51013 8122 ft 212 kts 147°
2026-04-25 17:49 35.36846 75.51898 7789 ft 196 kts 149°
2026-04-25 17:50 35.35789 75.52719 7592 ft 169 kts 154°
2026-04-25 17:50 35.34836 75.53393 7394 ft 136 kts 131°
2026-04-25 17:50 35.34306 75.53839 7395 ft 62 kts 133°
2026-04-25 17:50 35.33968 75.54110 7395 ft 55 kts 145°
2026-04-25 17:51 35.33712 75.54328 7391 ft 40 kts 146°
2026-04-25 17:51 35.33585 75.54428 7394 ft 21 kts 147°
2026-04-25 17:51 35.33468 75.54520 7391 ft 15 kts 146°
2026-04-25 17:51 35.33377 75.54572 7393 ft 13 kts 198°
2026-04-25 17:52 35.33338 75.54518 7392 ft 13 kts 240°
2026-04-25 17:52 35.33308 75.54455 7395 ft 13 kts 236°
2026-04-25 17:52 35.33298 75.54438 7393 ft 0 kts 235°
2026-04-25 17:54 35.33295 75.54431 7392 ft 3 kts 236°
2026-04-25 17:54 35.33283 75.54409 7392 ft 2 kts 236°
2026-04-25 17:54 35.33270 75.54386 7391 ft 6 kts 236°
2026-04-25 17:54 35.33237 75.54320 7392 ft 12 kts 239°
2026-04-25 17:55 35.33182 75.54217 7393 ft 16 kts 235°
2026-04-25 17:55 35.33143 75.54161 7394 ft 5 kts 202°
2026-04-25 17:55 35.33125 75.54166 7394 ft 1 kts 147°
2026-04-25 17:55 35.33124 75.54167 7394 ft 0 kts 146°
2026-04-25 17:56 35.33119 75.54170 7393 ft 1 kts 146°
2026-04-25 17:56 35.33116 75.54173 7393 ft 1 kts 146°
2026-04-25 17:56 35.33112 75.54176 7394 ft 2 kts 146°
2026-04-25 17:56 35.33108 75.54180 7394 ft 0 kts 147°